Location: PSU-Greenbush Astrophysical Observatory
(37.5140°N, 94.9880°W)
Time: 08:16:05
(UTC-06:00)

Altair - Pass Details

Date: 26 January 2020
Orbit: 1502 x 1682 km, 47.2° (Epoch: 23 February)

Event Time Altitude Azimuth Distance (km) Brightness Sun altitude
Rises 05:11:00 0° 166° (SSE) 4,800 10.3 -27.2°
Reaches altitude 10° 05:17:25 10° 136° (SE) 3,866 10.2 -25.9°
Maximum altitude 05:20:02 11° 120° (ESE) 3,781 10.4 -25.4°
Drops below altitude 10° 05:22:41 10° 104° (ESE) 3,902 10.7 -24.9°
Sets 05:29:11 0° 74° (ENE) 4,923 11.3 -23.6°
